TimeCDT,TemperatureF,Dew PointF,Humidity,Sea Level PressureIn,VisibilityMPH,Wind Direction,Wind SpeedMPH,Gust SpeedMPH,PrecipitationIn,Events,Conditions,WindDirDegrees,DateUTC
12:53 AM,70.0,48.0,46,29.66,10.0,SSE,19.6,-,N/A,,Clear,160,2013-04-30 05:53:00
1:53 AM,68.0,46.9,47,29.66,10.0,SSE,15.0,-,N/A,,Clear,160,2013-04-30 06:53:00
2:53 AM,66.9,50.0,54,29.64,10.0,SSE,16.1,-,N/A,,Clear,160,2013-04-30 07:53:00
3:53 AM,66.0,51.1,59,29.63,10.0,SSE,17.3,-,N/A,,Clear,160,2013-04-30 08:53:00
4:53 AM,64.0,53.1,67,29.63,10.0,SSE,17.3,24.2,N/A,,Clear,160,2013-04-30 09:53:00
5:53 AM,63.0,53.1,70,29.62,10.0,South,16.1,-,N/A,,Clear,180,2013-04-30 10:53:00
6:53 AM,61.0,52.0,72,29.63,10.0,South,9.2,-,N/A,,Clear,170,2013-04-30 11:53:00
7:53 AM,61.0,51.1,70,29.63,10.0,South,9.2,-,N/A,,Clear,180,2013-04-30 12:53:00
8:53 AM,70.0,42.1,36,29.64,10.0,SSW,9.2,-,N/A,,Clear,200,2013-04-30 13:53:00
9:53 AM,82.0,33.1,17,29.61,10.0,SW,16.1,-,N/A,,Clear,220,2013-04-30 14:53:00
10:53 AM,88.0,27.0,11,29.60,10.0,WSW,17.3,24.2,N/A,,Clear,240,2013-04-30 15:53:00
11:53 AM,91.9,21.9,8,29.59,10.0,SW,17.3,25.3,N/A,,Clear,230,2013-04-30 16:53:00
12:53 PM,95.0,17.1,6,29.57,10.0,West,6.9,-,N/A,,Clear,270,2013-04-30 17:53:00
1:53 PM,95.0,19.9,7,29.56,10.0,North,19.6,26.5,N/A,,Clear,350,2013-04-30 18:53:00
2:53 PM,95.0,21.9,7,29.55,10.0,NNW,8.1,18.4,N/A,,Clear,340,2013-04-30 19:53:00
3:53 PM,93.9,10.0,4,29.54,10.0,Variable,3.5,17.3,N/A,,Clear,0,2013-04-30 20:53:00
4:53 PM,93.0,8.1,4,29.53,10.0,Variable,3.5,-,N/A,,Clear,0,2013-04-30 21:53:00
5:53 PM,95.0,10.0,4,29.52,10.0,SW,6.9,-,N/A,,Clear,230,2013-04-30 22:53:00
6:53 PM,93.0,12.0,5,29.53,10.0,South,5.8,-,N/A,,Clear,190,2013-04-30 23:53:00
7:53 PM,90.0,14.0,6,29.54,10.0,SW,4.6,-,N/A,,Clear,220,2013-05-01 00:53:00
8:53 PM,84.9,28.0,13,29.54,10.0,SE,6.9,-,N/A,,Clear,140,2013-05-01 01:53:00
9:53 PM,82.9,39.0,21,29.55,10.0,SSE,15.0,-,N/A,,Clear,160,2013-05-01 02:53:00
10:53 PM,79.0,45.0,30,29.58,10.0,SSE,11.5,18.4,N/A,,Clear,160,2013-05-01 03:53:00
11:53 PM,75.9,46.0,35,29.60,10.0,SSE,11.5,-,N/A,,Clear,160,2013-05-01 04:53:00